Dewpoint
67 69 74 74 74 74 74 74 75 74 75 74 72 72 73 71 69 70 71 69 70 69 67 67 69 70 68 69 70 70 70 69 69 70 70 71 70 67 68 67 69 65 69
68 68 74 75 74 75 75 75 75 75 74 74 73 73 72 71 69 70 71 70 69 68 67 67 70 69 68 69 69 69 69 69 70 70 70 70 70 67 67 67 69 65 68
68 68 70 74 74 74 74 75 74 75 74 73 74 72 71 71 69 70 71 71 70 69 69 70 69 67 68 68 67 68 69 69 69 69 69 67 68 70 69 69 70 70 70
68 69 68 74 74 74 75 74 74 74 74 73 73 73 71 71 69 69 71 71 71 71 70 71 70 69 67 68 68 68 68 69 68 68 63 65 64 68 68 68 68 68 68
68 69 68 73 74 74 74 74 74 74 74 73 74 73 72 70 69 69 72 72 71 70 71 69 68 68 67 67 68 68 67 68 67 65 62 63 62 65 67 66 66 66 66
68 69 71 73 73 74 73 74 74 74 74 73 73 73 72 72 70 72 72 71 71 71 70 68 68 67 67 66 65 65 67 66 66 62 60 62 61 66 66 66 66 65 64
69 69 68 73 73 73 74 73 73 74 74 73 73 72 72 72 72 72 72 71 71 70 69 68 67 67 67 67 66 65 65 65 58 58 59 59 62 64 64 63 63 63 63
67 69 68 71 72 72 73 73 73 73 73 73 73 73 72 72 73 72 72 71 71 69 68 68 67 67 67 67 67 66 65 64 57 56 58 60 65 64 64 64 64 63 63
58 68 69 68 69 71 71 71 72 73 73 73 73 73 72 71 72 72 71 71 70 69 69 69 68 67 67 67 67 66 65 64 56 57 57 59 66 64 64 64 64 63 63
44 52 66 68 67 67 68 71 71 72 72 72 72 71 70 70 70 71 70 70 70 69 68 69 69 67 67 69 68 66 65 63 56 58 58 60 65 64 64 64 64 63 63
43 45 50 64 67 66 67 67 70 70 70 70 69 69 68 67 67 68 68 68 69 68 68 69 69 69 68 67 68 66 64 56 56 56 57 65 66 64 64 64 64 63 63
42 42 45 50 64 68 67 66 67 67 68 67 67 68 67 66 66 66 66 68 69 68 68 69 69 68 66 59 61 64 59 58 57 57 57 64 66 65 64 64 64 63 62
42 42 45 45 53 66 69 69 65 64 66 66 65 66 65 64 66 66 69 69 67 66 63 64 65 62 60 58 58 57 58 58 56 58 59 63 65 66 65 64 64 64 64
40 42 43 44 47 58 68 69 66 63 63 65 66 66 65 65 64 65 66 68 66 64 62 59 58 58 59 59 57 56 57 57 56 56 58 63 64 65 66 65 65 65 65
38 41 42 44 45 53 62 68 68 65 64 64 65 65 64 64 64 64 64 65 66 64 62 60 58 59 59 57 56 55 54 55 55 54 54 62 63 64 66 67 66 67 67
38 39 42 42 43 50 57 65 68 67 64 64 65 64 65 63 64 64 63 63 64 63 63 61 57 56 57 57 55 54 53 52 53 53 54 55 62 63 64 65 67 68 67
36 39 41 42 43 44 54 61 66 68 67 66 66 66 65 66 65 65 65 63 63 63 63 64 61 60 59 57 55 53 53 52 52 52 54 55 56 61 63 64 65 66 67
39 39 40 39 40 42 49 57 64 67 66 67 67 67 67 66 67 66 66 63 63 64 65 64 62 61 59 57 55 54 52 52 53 53 54 55 56 56 60 63 65 66 67
39 40 41 43 42 39 45 52 60 65 67 67 68 67 66 66 67 67 68 65 64 65 66 65 63 62 61 61 58 55 53 52 53 53 53 54 56 58 58 61 62 64 65
42 41 41 42 43 40 44 52 60 64 65 66 66 66 66 65 65 66 66 66 66 66 65 65 63 63 62 60 58 56 55 53 54 55 55 53 54 56 59 59 60 59 61
44 44 43 43 43 43 42 51 57 60 63 65 66 65 65 65 65 65 66 65 65 65 65 64 63 62 61 61 60 59 59 57 54 56 56 55 55 55 57 58 59 60 60
44 44 44 43 43 44 43 47 55 59 61 64 65 65 65 65 65 65 65 65 65 64 64 64 63 62 61 61 58 57 51 51 54 54 54 54 55 55 56 57 57 59 60
44 44 43 44 44 44 46 51 56 60 62 62 63 64 64 64 65 65 65 65 65 65 64 63 63 62 59 59 59 54 52 50 51 57 56 55 56 55 57 57 58 60 60
48 48 46 45 45 45 47 51 54 57 58 60 61 63 63 63 65 65 65 65 65 64 63 63 64 63 61 58 59 59 57 54 52 53 57 57 58 58 58 59 58 59 60
50 50 50 48 46 45 48 50 51 53 57 60 61 61 62 62 63 63 65 64 64 64 63 63 63 63 62 60 59 58 58 59 57 56 51 53 56 56 57 58 58 58 59
51 53 54 50 48 46 48 50 51 54 56 59 59 59 59 60 60 60 61 62 63 63 62 62 62 62 62 60 59 58 57 56 56 56 56 55 57 56 58 58 59 58 59
Lifted_Index
-2 -3 -3 -3 -3 -4 -4 -4 -3 -3 -3 -3 -2 -2 -1 0 1 1 1 1 2 3 3 3 2 2 2 2 2 1 1 1 1 1 0 0 1 2 2 1 1 1 0
-2 -3 -3 -3 -3 -3 -4 -4 -4 -3 -3 -3 -2 -2 -1 0 1 1 0 1 2 3 3 3 2 2 2 2 2 2 2 2 1 1 1 1 1 1 1 1 1 1 0
-2 -3 -3 -3 -3 -3 -3 -3 -3 -3 -3 -2 -2 -2 -1 0 1 1 0 0 1 2 2 2 2 3 3 3 3 3 2 2 2 2 2 1 1 1 1 1 1 0 0
-3 -3 -3 -3 -3 -3 -3 -3 -3 -3 -3 -2 -2 -1 -1 0 1 1 -0 0 1 1 2 2 2 3 3 3 3 3 3 3 3 3 2 2 2 2 1 1 1 1 1
-3 -3 -3 -3 -3 -3 -3 -3 -3 -3 -3 -2 -2 -1 -1 0 0 0 -0 -0 1 1 2 2 3 3 3 3 3 3 3 3 3 3 3 3 3 3 2 2 2 2 2
-3 -3 -3 -3 -3 -3 -3 -3 -3 -3 -3 -3 -2 -2 -1 -0 -0 -1 -1 -0 0 1 2 2 3 3 4 4 4 4 4 4 4 4 4 4 4 4 3 3 3 3 4
-2 -2 -3 -3 -3 -4 -3 -3 -3 -3 -3 -3 -3 -2 -1 -1 -1 -1 -1 -0 0 1 2 3 3 3 3 4 4 4 5 5 6 6 5 5 4 4 4 4 4 4 4
-1 -2 -2 -3 -3 -3 -3 -3 -3 -3 -3 -3 -3 -3 -2 -2 -2 -2 -1 -0 0 1 2 2 3 3 3 3 4 4 5 6 7 6 6 5 4 4 4 4 4 5 5
-1 -1 -2 -2 -2 -3 -3 -3 -3 -3 -3 -3 -3 -3 -2 -2 -2 -2 -1 -0 0 1 2 2 2 2 3 3 3 4 6 7 7 6 6 5 4 4 4 4 4 4 4
1 0 -1 -1 -2 -2 -2 -2 -3 -3 -3 -3 -3 -2 -2 -2 -2 -2 -1 -0 0 1 2 2 2 2 2 3 3 5 6 7 7 6 6 5 4 3 4 4 4 4 4
2 1 0 -0 -1 -1 -2 -2 -2 -2 -2 -2 -2 -2 -1 -1 -1 -1 -1 -0 0 1 1 1 1 2 2 3 3 5 6 6 6 6 6 5 4 3 3 4 4 4 4
3 3 2 1 0 -1 -1 -2 -2 -2 -2 -2 -2 -2 -1 -1 -1 -1 -1 -1 0 1 1 1 1 2 3 3 4 5 5 5 5 6 6 5 4 3 3 4 4 4 4
7 5 4 3 1 0 -1 -1 -1 -1 -1 -1 -1 -1 -1 -1 -0 -0 -1 -1 -0 1 1 2 2 3 3 4 4 4 5 5 5 5 5 5 4 3 3 3 3 4 4
10 9 7 6 3 1 0 -1 -1 -1 -1 -1 -1 -1 -1 -1 -0 -0 -0 -0 0 1 1 2 3 3 3 4 4 4 4 5 5 5 5 6 5 4 3 3 3 3 3
12 11 11 9 7 4 2 -0 -1 -1 -0 -0 -1 -1 -1 -1 -1 -0 -0 -0 0 1 1 2 3 3 3 4 4 5 5 5 5 5 5 6 5 4 3 2 2 2 2
13 13 12 12 10 7 4 1 -1 -1 -1 -1 -0 -0 -0 -1 -1 -1 -0 -0 0 0 1 2 3 3 3 3 4 5 5 5 5 5 5 5 5 5 4 3 2 1 1
13 13 13 13 12 10 6 2 -0 -1 -1 -1 -1 -1 -1 -1 -1 -1 -1 -0 0 0 1 1 2 3 3 3 4 5 5 5 5 5 5 5 5 5 4 4 3 2 1
12 12 12 13 12 11 8 4 1 -1 -1 -1 -1 -1 -1 -1 -1 -1 -1 -0 0 0 1 1 1 2 2 3 4 5 5 5 5 4 4 4 4 4 4 4 3 3 2
12 12 12 12 12 11 9 5 2 -0 -1 -1 -1 -1 -1 -1 -1 -1 -1 -1 -0 0 1 1 1 1 1 2 3 4 5 5 4 4 4 3 3 3 3 3 3 3 3
11 11 11 11 11 11 9 6 3 1 -1 -1 -2 -2 -1 -1 -1 -1 -1 -1 -1 -0 0 1 1 1 1 1 2 3 4 4 4 3 3 3 3 3 2 2 2 3 3
10 10 11 11 11 11 10 7 4 2 -0 -1 -2 -2 -2 -1 -1 -1 -1 -1 -1 -1 -0 0 0 0 0 1 1 2 3 3 3 3 3 3 3 3 2 2 2 2 2
10 10 10 10 10 10 10 8 5 2 0 -1 -2 -2 -2 -2 -2 -1 -1 -1 -1 -1 -1 -0 -0 -0 0 1 2 2 3 3 3 2 2 3 3 2 2 2 2 2 2
8 9 9 9 10 10 9 8 5 3 1 -0 -1 -2 -2 -2 -2 -1 -1 -1 -1 -1 -1 -1 -1 -1 -0 1 2 2 3 3 3 2 2 2 2 2 2 2 3 2 2
5 6 7 8 8 8 8 7 5 3 2 0 -1 -2 -2 -2 -2 -2 -2 -2 -1 -1 -1 -1 -1 -1 -0 1 1 2 2 2 3 2 2 2 2 2 2 2 3 2 2
3 3 4 5 6 7 6 6 5 3 2 0 -1 -2 -2 -2 -1 -1 -1 -1 -1 -1 -1 -1 -1 -1 -1 0 1 1 2 2 3 3 2 2 2 2 2 2 3 2 2
2 2 2 3 5 6 5 5 4 3 2 0 -1 -1 -1 -1 -1 -1 -1 -1 -1 -1 -0 -0 -0 -0 -0 0 1 1 2 2 3 3 2 2 1 2 2 3 3 2 1